Location: Newark
(34.1333°N, 7.9667°W)
Time: 08:02:58
(UTC+00:00)

S-56A Canister/Altair - Pass Details

Date: 07 December 2021
Orbit: 634 x 2499 km, 38.9° (Epoch: 25 January)

Event Time Altitude Azimuth Distance (km) Brightness Sun altitude
Rises 18:44:45 0° 176° (S) 6,161 12.3 -16.7°
Reaches altitude 10° 18:54:00 10° 147° (SSE) 4,993 11.5 -18.5°
Maximum altitude 18:57:02 11° 134° (SE) 4,808 11.3 -19.1°
Drops below altitude 10° 18:59:57 10° 121° (ESE) 4,762 11.1 -19.7°
Enters shadow 19:00:48 - 117° (ESE) 4,775 11.1 -19.9°
